User: anonymous   Login
Location: *
(50.6089°N, 2.2719°E)
Time: 13:38:04
(UTC+00:00)
Language:

COSMO-SKYMED 1 - Orbit

View from above orbital plane
View from above orbital plane
View from above satellite
View from above satellite

Ground track
Ground track

The orbit data is extracted from the following two-line orbital elements,

1 31598U 07023A   19342.07284558  .00000041  00000-0  11729-4 0  9995
2 31598  97.8837 163.0242 0001311  96.1086 264.0282 14.82152139676339
Epoch (UTC): 08 December 2019 01:44:53
Eccentricity: 0.0001311
inclination: 97.8837°
perigee height: 621 km
apogee height: 623 km
right ascension of ascending node: 163.0242°
argument of perigee: 96.1086°
revolutions per day: 14.82152139
mean anomaly at epoch: 264.0282°
orbit number at epoch: 67633

The dashed part of the orbit path shows where the satellite is in the earth's shadow,  

DLR